Time,TemperatureF,DewpointF,PressureIn,WindDirection,WindDirectionDegrees,WindSpeedMPH,WindSpeedGustMPH,Humidity,HourlyPrecipIn,Conditions,Clouds,dailyrainin,SoftwareType,DateUTC
2013-03-26 00:14:00,32.4,28.1,29.79,WSW,247,2.7,-999.0,84,-99.99,,,0.00,Acu-Link.com,2013-03-26 04:14:00,
2013-03-26 00:29:00,32.0,28.0,29.80,SW,225,1.1,-999.0,85,-99.99,,,0.00,Acu-Link.com,2013-03-26 04:29:00,
2013-03-26 00:44:00,32.0,28.3,29.81,West,270,1.7,-999.0,86,-99.99,,,0.00,Acu-Link.com,2013-03-26 04:44:00,
2013-03-26 00:59:00,32.0,28.3,29.81,WSW,247,4.2,-999.0,86,-99.99,,,0.00,Acu-Link.com,2013-03-26 04:59:00,
2013-03-26 01:15:00,31.8,28.4,29.80,SW,225,0.0,-999.0,87,-99.99,,,0.00,Acu-Link.com,2013-03-26 05:15:00,
2013-03-26 01:30:00,32.0,28.0,29.81,South,180,1.7,-999.0,85,-99.99,,,0.00,Acu-Link.com,2013-03-26 05:30:00,
2013-03-26 01:45:00,32.0,27.7,29.81,WSW,247,5.3,-999.0,84,-99.99,,,0.00,Acu-Link.com,2013-03-26 05:45:00,
2013-03-26 02:00:00,32.0,28.3,29.80,SW,225,2.7,-999.0,86,-99.99,,,0.00,Acu-Link.com,2013-03-26 06:00:00,
2013-03-26 02:16:00,31.6,28.7,29.80,WSW,247,1.7,-999.0,89,-99.99,,,0.00,Acu-Link.com,2013-03-26 06:16:00,
2013-03-26 03:01:00,31.6,28.5,29.81,SSE,157,2.2,-999.0,88,-99.99,,,0.00,Acu-Link.com,2013-03-26 07:01:00,
2013-03-26 03:17:00,31.6,27.9,29.81,SW,225,2.7,-999.0,86,-99.99,,,0.00,Acu-Link.com,2013-03-26 07:17:00,
2013-03-26 03:32:00,31.8,28.4,29.82,SSW,202,2.7,-999.0,87,-99.99,,,0.00,Acu-Link.com,2013-03-26 07:32:00,
2013-03-26 03:47:00,31.5,28.6,29.82,South,180,3.2,-999.0,89,-99.99,,,0.00,Acu-Link.com,2013-03-26 07:47:00,
2013-03-26 04:02:00,31.5,28.6,29.81,WSW,247,3.2,-999.0,89,-99.99,,,0.00,Acu-Link.com,2013-03-26 08:02:00,
2013-03-26 04:17:00,31.5,28.4,29.80,SSE,157,1.7,-999.0,88,-99.99,,,0.00,Acu-Link.com,2013-03-26 08:17:00,
2013-03-26 04:33:00,31.5,28.4,29.80,SW,225,1.7,-999.0,88,-99.99,,,0.00,Acu-Link.com,2013-03-26 08:33:00,
2013-03-26 04:48:00,31.5,28.4,29.80,SW,225,2.2,-999.0,88,-99.99,,,0.00,Acu-Link.com,2013-03-26 08:48:00,
2013-03-26 05:03:00,31.5,28.6,29.80,NW,315,3.2,-999.0,89,-99.99,,,0.00,Acu-Link.com,2013-03-26 09:03:00,
2013-03-26 05:18:00,31.3,28.4,29.81,SSE,157,2.2,-999.0,89,-99.99,,,0.00,Acu-Link.com,2013-03-26 09:18:00,
2013-03-26 05:34:00,31.3,28.7,29.80,WSW,247,1.7,-999.0,90,-99.99,,,0.00,Acu-Link.com,2013-03-26 09:34:00,
2013-03-26 05:49:00,31.3,28.7,29.80,SW,225,3.2,-999.0,90,-99.99,,,0.00,Acu-Link.com,2013-03-26 09:49:00,
2013-03-26 06:04:00,31.3,28.4,29.80,SW,225,1.7,-999.0,89,-99.99,,,0.00,Acu-Link.com,2013-03-26 10:04:00,
2013-03-26 06:19:00,31.3,28.4,29.80,West,270,2.2,-999.0,89,-99.99,,,0.00,Acu-Link.com,2013-03-26 10:19:00,
2013-03-26 06:34:00,31.3,28.2,29.80,SSW,202,2.2,-999.0,88,-99.99,,,0.00,Acu-Link.com,2013-03-26 10:34:00,
2013-03-26 06:49:00,31.5,28.4,29.82,NNW,337,2.7,-999.0,88,-99.99,,,0.00,Acu-Link.com,2013-03-26 10:49:00,
2013-03-26 07:05:00,31.5,28.4,29.82,SW,225,2.2,-999.0,88,-99.99,,,0.00,Acu-Link.com,2013-03-26 11:05:00,
2013-03-26 07:20:00,31.5,28.6,29.82,South,180,0.0,-999.0,89,-99.99,,,0.00,Acu-Link.com,2013-03-26 11:20:00,
2013-03-26 07:35:00,31.5,28.6,29.83,West,270,0.0,-999.0,89,-99.99,,,0.00,Acu-Link.com,2013-03-26 11:35:00,
2013-03-26 07:51:00,31.6,28.7,29.84,SSW,202,1.7,-999.0,89,-99.99,,,0.00,Acu-Link.com,2013-03-26 11:51:00,
2013-03-26 08:06:00,31.6,28.7,29.85,SSE,157,1.1,-999.0,89,-99.99,,,0.00,Acu-Link.com,2013-03-26 12:06:00,
2013-03-26 08:21:00,31.8,28.9,29.85,SW,225,0.0,-999.0,89,-99.99,,,0.00,Acu-Link.com,2013-03-26 12:21:00,
2013-03-26 08:37:00,31.8,28.9,29.86,WSW,247,2.2,-999.0,89,-99.99,,,0.00,Acu-Link.com,2013-03-26 12:37:00,
2013-03-26 08:52:00,32.2,29.1,29.86,WSW,247,2.2,-999.0,88,-99.99,,,0.00,Acu-Link.com,2013-03-26 12:52:00,
2013-03-26 09:07:00,32.7,29.3,29.87,WSW,247,0.0,-999.0,87,-99.99,,,0.00,Acu-Link.com,2013-03-26 13:07:00,
2013-03-26 09:22:00,32.9,30.0,29.89,WSW,247,1.7,-999.0,89,-99.99,,,0.00,Acu-Link.com,2013-03-26 13:22:00,
2013-03-26 09:37:00,33.4,30.2,29.89,WSW,247,2.7,-999.0,88,-99.99,,,0.00,Acu-Link.com,2013-03-26 13:37:00,
2013-03-26 09:53:00,34.2,31.6,29.89,SSW,202,1.7,-999.0,90,-99.99,,,0.00,Acu-Link.com,2013-03-26 13:53:00,
2013-03-26 10:08:00,34.2,31.6,29.90,SW,225,1.7,-999.0,90,-99.99,,,0.00,Acu-Link.com,2013-03-26 14:08:00,
2013-03-26 10:23:00,35.4,32.2,29.90,West,270,4.7,-999.0,88,-99.99,,,0.00,Acu-Link.com,2013-03-26 14:23:00,
2013-03-26 10:39:00,36.0,31.9,29.91,SE,135,2.2,-999.0,85,-99.99,,,0.00,Acu-Link.com,2013-03-26 14:39:00,
2013-03-26 10:54:00,36.7,31.7,29.91,SW,225,4.7,-999.0,82,-99.99,,,0.01,Acu-Link.com,2013-03-26 14:54:00,
2013-03-26 11:09:00,37.0,31.7,29.91,West,270,5.3,-999.0,81,-99.99,,,0.02,Acu-Link.com,2013-03-26 15:09:00,
2013-03-26 11:24:00,39.0,32.4,29.92,West,270,3.7,-999.0,77,-99.99,,,0.02,Acu-Link.com,2013-03-26 15:24:00,
2013-03-26 11:39:00,39.0,31.1,29.92,NNW,337,6.3,-999.0,73,-99.99,,,0.02,Acu-Link.com,2013-03-26 15:39:00,
2013-03-26 11:54:00,39.4,31.5,29.92,West,270,1.7,-999.0,73,-99.99,,,0.02,Acu-Link.com,2013-03-26 15:54:00,
2013-03-26 12:09:00,39.4,30.4,29.93,West,270,3.7,-999.0,70,-99.99,,,0.02,Acu-Link.com,2013-03-26 16:09:00,
2013-03-26 12:25:00,36.7,30.2,29.93,WSW,247,3.7,-999.0,77,-99.99,,,0.02,Acu-Link.com,2013-03-26 16:25:00,
2013-03-26 12:40:00,36.5,30.6,29.94,WNW,292,4.2,-999.0,79,-99.99,,,0.02,Acu-Link.com,2013-03-26 16:40:00,
2013-03-26 13:26:00,42.1,28.4,29.92,West,270,2.7,-999.0,58,-99.99,,,0.03,Acu-Link.com,2013-03-26 17:26:00,
2013-03-26 13:42:00,39.4,28.3,29.93,West,270,4.2,-999.0,64,-99.99,,,0.03,Acu-Link.com,2013-03-26 17:42:00,
2013-03-26 13:57:00,38.3,27.6,29.94,West,270,5.3,-999.0,65,-99.99,,,0.03,Acu-Link.com,2013-03-26 17:57:00,
2013-03-26 14:12:00,39.4,28.3,29.93,NE,45,2.7,-999.0,64,-99.99,,,0.03,Acu-Link.com,2013-03-26 18:12:00,
2013-03-26 14:42:00,39.2,26.9,29.94,NNW,337,4.7,-999.0,61,-99.99,,,0.03,Acu-Link.com,2013-03-26 18:42:00,
2013-03-26 14:58:00,39.7,27.0,29.94,ESE,112,3.7,-999.0,60,-99.99,,,0.03,Acu-Link.com,2013-03-26 18:58:00,
2013-03-26 15:13:00,41.4,26.9,29.94,WNW,292,2.7,-999.0,56,-99.99,,,0.03,Acu-Link.com,2013-03-26 19:13:00,
2013-03-26 15:28:00,40.1,27.7,29.94,SW,225,2.7,-999.0,61,-99.99,,,0.03,Acu-Link.com,2013-03-26 19:28:00,
2013-03-26 15:43:00,40.3,28.3,29.95,WSW,247,2.7,-999.0,62,-99.99,,,0.03,Acu-Link.com,2013-03-26 19:43:00,
2013-03-26 15:59:00,40.6,27.4,29.94,NW,315,2.7,-999.0,59,-99.99,,,0.03,Acu-Link.com,2013-03-26 19:59:00,
2013-03-26 16:29:00,40.1,27.7,29.94,WNW,292,2.2,-999.0,61,-99.99,,,0.03,Acu-Link.com,2013-03-26 20:29:00,
2013-03-26 16:45:00,39.6,26.9,29.95,NW,315,4.7,-999.0,60,-99.99,,,0.03,Acu-Link.com,2013-03-26 20:45:00,
2013-03-26 17:00:00,39.4,26.3,29.95,West,270,3.2,-999.0,59,-99.99,,,0.03,Acu-Link.com,2013-03-26 21:00:00,
2013-03-26 17:15:00,40.5,26.5,29.95,NNW,337,1.1,-999.0,57,-99.99,,,0.03,Acu-Link.com,2013-03-26 21:15:00,
2013-03-26 17:30:00,41.2,26.7,29.96,WNW,292,2.7,-999.0,56,-99.99,,,0.03,Acu-Link.com,2013-03-26 21:30:00,
2013-03-26 18:01:00,39.4,26.7,29.97,West,270,2.2,-999.0,60,-99.99,,,0.03,Acu-Link.com,2013-03-26 22:01:00,
2013-03-26 18:16:00,39.4,27.1,29.97,West,270,2.7,-999.0,61,-99.99,,,0.03,Acu-Link.com,2013-03-26 22:16:00,
2013-03-26 18:32:00,39.7,27.4,29.98,East,90,0.0,-999.0,61,-99.99,,,0.03,Acu-Link.com,2013-03-26 22:32:00,
2013-03-26 18:47:00,39.4,27.1,29.98,West,270,2.2,-999.0,61,-99.99,,,0.03,Acu-Link.com,2013-03-26 22:47:00,
2013-03-26 19:02:00,39.0,26.7,30.00,WNW,292,2.7,-999.0,61,-99.99,,,0.03,Acu-Link.com,2013-03-26 23:02:00,
2013-03-26 19:17:00,38.7,27.6,29.99,West,270,1.1,-999.0,64,-99.99,,,0.03,Acu-Link.com,2013-03-26 23:17:00,
2013-03-26 19:33:00,37.9,27.9,30.01,North,0,3.7,-999.0,67,-99.99,,,0.03,Acu-Link.com,2013-03-26 23:33:00,
2013-03-26 19:48:00,37.4,28.2,30.02,NNE,22,1.7,-999.0,69,-99.99,,,0.03,Acu-Link.com,2013-03-26 23:48:00,
2013-03-26 20:03:00,37.0,28.1,30.01,West,270,1.7,-999.0,70,-99.99,,,0.03,Acu-Link.com,2013-03-27 00:03:00,
2013-03-26 20:18:00,36.7,28.2,30.02,WNW,292,2.2,-999.0,71,-99.99,,,0.03,Acu-Link.com,2013-03-27 00:18:00,
2013-03-26 20:34:00,36.1,28.0,30.02,SW,225,1.7,-999.0,72,-99.99,,,0.03,Acu-Link.com,2013-03-27 00:34:00,
2013-03-26 20:49:00,36.0,28.2,30.02,West,270,1.7,-999.0,73,-99.99,,,0.03,Acu-Link.com,2013-03-27 00:49:00,
2013-03-26 21:04:00,35.8,28.0,30.02,South,180,0.0,-999.0,73,-99.99,,,0.03,Acu-Link.com,2013-03-27 01:04:00,
2013-03-26 21:20:00,34.7,27.6,30.03,West,270,0.0,-999.0,75,-99.99,,,0.03,Acu-Link.com,2013-03-27 01:20:00,
2013-03-26 21:35:00,33.6,27.2,30.04,West,270,0.0,-999.0,77,-99.99,,,0.03,Acu-Link.com,2013-03-27 01:35:00,
2013-03-26 21:50:00,33.4,27.6,30.05,SW,225,0.0,-999.0,79,-99.99,,,0.03,Acu-Link.com,2013-03-27 01:50:00,
2013-03-26 22:05:00,33.3,28.1,30.06,SW,225,0.0,-999.0,81,-99.99,,,0.03,Acu-Link.com,2013-03-27 02:05:00,
2013-03-26 22:20:00,33.6,28.4,30.07,SSW,202,0.0,-999.0,81,-99.99,,,0.03,Acu-Link.com,2013-03-27 02:20:00,
2013-03-26 22:51:00,33.8,28.6,30.06,North,0,0.0,-999.0,81,-99.99,,,0.03,Acu-Link.com,2013-03-27 02:51:00,
2013-03-26 23:06:00,34.0,28.8,30.07,WNW,292,0.0,-999.0,81,-99.99,,,0.03,Acu-Link.com,2013-03-27 03:06:00,
2013-03-26 23:22:00,34.0,28.8,30.07,West,270,1.7,-999.0,81,-99.99,,,0.03,Acu-Link.com,2013-03-27 03:22:00,
2013-03-26 23:37:00,33.8,28.6,30.07,West,270,0.0,-999.0,81,-99.99,,,0.03,Acu-Link.com,2013-03-27 03:37:00,
2013-03-26 23:52:00,34.0,28.8,30.07,West,270,2.2,-999.0,81,-99.99,,,0.03,Acu-Link.com,2013-03-27 03:52:00,